Weather History for KFOK - December, 2013

Change the Weather History Date:

Sunday, December 1, 2013

  Actual Average Record
Temperature  
Mean Temperature 42 °F -  
Max Temperature 53 °F 47 °F 64 °F (2001)
Min Temperature 30 °F 27 °F 23 °F (2007)
Degree Days  
Heating Degree Days 24    
Moisture  
Dew Point 38 °F    
Average Humidity 79    
Maximum Humidity 100    
Minimum Humidity 61    
Precipitation  
Precipitation 0.00 in - - ()
Sea Level Pressure  
Sea Level Pressure 30.16 in    
Wind  
Wind Speed 6 mph (SE)    
Max Wind Speed 10 mph    
Max Gust Speed 17 mph    
Visibility 7 miles    
Events Fog , Rain    
Averages and records for this station are not official NWS values.
T = Trace of Precipitation, MM = Missing Value Source: NWS Daily Summary

Daily Weather History Graph

Daily Weather History Graph

Search for Another Location

Airport or City:

Trip Planner

Search our weather history database for the weather conditions in past years. The results will help you decide how hot, cold, wet, or windy it might be!

Date:

Astronomy

Dec. 01, 2013 Rise Set
Actual Time 6:55 AM EST 4:23 PM EST
Civil Twilight 6:25 AM EST 4:53 PM EST
Nautical Twilight 5:51 AM EST 5:27 PM EST
Astronomical Twilight 5:18 AM EST 6:00 PM EST
Moon 5:10 AM EST (12/1) 3:31 PM EST (12/1)
Length of Visible Light 10h 28m
Length of Day
9h 27m
Waning Crescent, 2% of the Moon is Illuminated
Dec 1
Waning Crescent
Dec 2
New
Dec 9
First Quarter
Dec 17
Full
Dec 25
Last Quarter

Hourly Weather History & Observations

Time (EST) Temp. Windchill Dew Point Humidity Pressure Visibility Wind Dir Wind Speed Gust Speed Precip Events Conditions
12:09 AM 42.8 °F 37.5 °F 32.0 °F 66% 30.40 in 10.0 mi SE 9.2 mph - N/A   Overcast
12:16 AM 44.6 °F 40.7 °F 32.0 °F 61% 30.40 in 10.0 mi SE 6.9 mph - N/A   Overcast
12:53 AM 44.1 °F 40.8 °F 33.1 °F 65% 30.38 in 10.0 mi SSE 5.8 mph - N/A   Overcast
1:01 AM 44.6 °F 40.7 °F 33.8 °F 66% 30.37 in 10.0 mi SE 6.9 mph - N/A   Overcast
1:41 AM 44.6 °F 39.7 °F 33.8 °F 66% 30.36 in 10.0 mi SE 9.2 mph - N/A   Overcast
1:53 AM 45.0 °F 41.2 °F 35.1 °F 68% 30.35 in 10.0 mi SE 6.9 mph - N/A   Overcast
2:53 AM 46.9 °F - 36.0 °F 66% 30.33 in 10.0 mi SE 10.4 mph - N/A   Overcast
3:03 AM 46.4 °F 42.4 °F 37.4 °F 71% 30.32 in 10.0 mi SSE 8.1 mph - N/A   Mostly Cloudy
3:18 AM 46.4 °F 44.3 °F 37.4 °F 71% 30.31 in 10.0 mi SSE 4.6 mph - N/A   Overcast
3:32 AM 46.4 °F 42.9 °F 37.4 °F 71% 30.30 in 10.0 mi SE 6.9 mph - N/A   Overcast
3:53 AM 46.9 °F - 37.0 °F 68% 30.29 in 10.0 mi West 3.5 mph - 0.00 in Rain Light Rain
4:41 AM 48.2 °F - 39.2 °F 71% 30.27 in 10.0 mi SSE 8.1 mph 17.3 mph 0.00 in   Mostly Cloudy
4:53 AM 48.0 °F - 39.0 °F 71% 30.27 in 10.0 mi SSE 8.1 mph - 0.00 in   Mostly Cloudy
5:30 AM 48.2 °F - 39.2 °F 71% 30.25 in 10.0 mi SSE 6.9 mph - N/A   Overcast
5:53 AM 48.9 °F - 39.0 °F 69% 30.25 in 10.0 mi SSE 9.2 mph - N/A   Overcast
6:53 AM 50.0 °F - 41.0 °F 71% 30.24 in 10.0 mi SSE 9.2 mph - 0.00 in   Overcast
7:53 AM 50.0 °F - 42.1 °F 74% 30.23 in 10.0 mi SE 9.2 mph - N/A   Overcast
8:26 AM 50.0 °F - 42.8 °F 76% 30.22 in 10.0 mi SSE 9.2 mph 16.1 mph N/A   Overcast
8:53 AM 51.1 °F - 44.1 °F 77% 30.22 in 10.0 mi SSE 8.1 mph - N/A   Overcast
9:53 AM 51.1 °F - 44.1 °F 77% 30.21 in 10.0 mi SE 5.8 mph - N/A   Overcast
10:23 AM 48.2 °F - 42.8 °F 82% 30.20 in 10.0 mi NNW 9.2 mph - N/A   Overcast
10:39 AM 50.0 °F - 44.6 °F 82% 30.18 in 10.0 mi North 5.8 mph - N/A   Overcast
10:53 AM 50.0 °F - 43.0 °F 77% 30.17 in 10.0 mi NNW 9.2 mph - N/A   Overcast
11:24 AM 51.8 °F - 44.6 °F 76% 30.15 in 10.0 mi North 8.1 mph - N/A   Scattered Clouds
11:53 AM 52.0 °F - 44.1 °F 74% 30.15 in 10.0 mi North 6.9 mph - N/A   Clear
12:53 PM 52.0 °F - 44.1 °F 74% 30.12 in 10.0 mi North 5.8 mph - N/A   Scattered Clouds
1:49 PM 53.6 °F - 44.6 °F 72% 30.08 in 10.0 mi Calm Calm - N/A   Mostly Cloudy
1:53 PM 53.1 °F - 43.0 °F 69% 30.09 in 10.0 mi Calm Calm - N/A   Mostly Cloudy
2:12 PM 53.6 °F - 42.8 °F 67% 30.07 in 10.0 mi Calm Calm - N/A   Scattered Clouds
2:53 PM 53.1 °F - 41.0 °F 64% 30.07 in 10.0 mi SW 5.8 mph - N/A   Scattered Clouds
3:31 PM 51.8 °F - 41.0 °F 67% 30.07 in 10.0 mi SW 4.6 mph - N/A   Mostly Cloudy
3:53 PM 50.0 °F - 42.1 °F 74% 30.07 in 10.0 mi North 5.8 mph - N/A   Overcast
4:53 PM 46.0 °F 43.9 °F 39.9 °F 79% 30.08 in 10.0 mi NW 4.6 mph - N/A   Overcast
5:13 PM 44.6 °F 42.2 °F 41.0 °F 87% 30.07 in 9.0 mi NW 4.6 mph - N/A   Overcast
5:21 PM 44.6 °F 43.1 °F 39.2 °F 81% 30.07 in 7.0 mi NW 3.5 mph - N/A   Overcast
5:37 PM 42.8 °F 40.1 °F 39.2 °F 87% 30.07 in 0.2 mi NW 4.6 mph - N/A   Overcast
5:53 PM 43.0 °F 41.3 °F 39.9 °F 89% 30.07 in 0.2 mi NW 3.5 mph - N/A Fog Fog
6:53 PM 42.1 °F 40.2 °F 39.9 °F 92% 30.07 in 0.2 mi NW 3.5 mph - N/A Fog Fog
7:23 PM 41.0 °F - 39.2 °F 93% 30.07 in 0.2 mi Calm Calm - N/A Fog Fog
7:53 PM 37.9 °F - 36.0 °F 93% 30.07 in 0.2 mi Calm Calm - N/A Fog Fog
8:36 PM 37.4 °F - 35.6 °F 93% 30.06 in 0.5 mi Calm Calm - N/A Fog Fog
8:49 PM 35.6 °F - 35.6 °F 100% 30.06 in 2.0 mi Calm Calm - N/A   Overcast
8:50 PM 36.0 °F - 35.1 °F 97% 30.06 in 2.5 mi Calm Calm - N/A   Overcast
8:57 PM 37.4 °F - 35.6 °F 93% 30.06 in 5.0 mi Calm Calm - N/A   Overcast
9:53 PM 36.0 °F - 34.0 °F 93% 30.06 in 7.0 mi Calm Calm - N/A   Overcast
10:53 PM 33.1 °F - 30.9 °F 92% 30.05 in 8.0 mi Calm Calm - N/A   Mostly Cloudy
11:08 PM 32.0 °F - 30.2 °F 93% 30.04 in 2.5 mi Calm Calm - N/A   Scattered Clouds
11:16 PM 30.2 °F 26.7 °F 28.4 °F 93% 30.04 in 1.8 mi NNE 3.5 mph - N/A   Scattered Clouds
11:20 PM 30.2 °F 26.7 °F 28.4 °F 93% 30.03 in 6.0 mi North 3.5 mph - N/A   Mostly Cloudy
11:28 PM 32.0 °F - 30.2 °F 93% 30.03 in 1.5 mi Calm Calm - N/A   Mostly Cloudy
11:36 PM 32.0 °F - 30.2 °F 93% 30.03 in 0.2 mi Calm Calm - N/A Fog Fog
11:44 PM 33.8 °F - 30.2 °F 87% 30.03 in 0.2 mi Calm Calm - N/A Fog Fog
11:53 PM 33.1 °F - 30.9 °F 92% 30.03 in 0.2 mi Calm Calm - N/A Fog Fog